Tracking 22093 objects as of 18-Jan-2021
HD Live streaming from Space Station
objects crossing your sky now

TRACE

Track TRACE now!
10-day predictions
TRACE is classified as:


NORAD ID: 25280
Int'l Code: 1998-020A
Perigee: 516.2 km
Apogee: 547.6 km
Inclination: 97.5 °
Period: 95.1 minutes
Semi major axis: 6902 km
RCS: 1.591 m2 (large)
Launch date: April 2, 1998
Source: United States (US)
Launch site: Pegasus launched from Western Range Air Space (WRAS)

Coordinates with SOHO; image the solar corona and transition region at high angular and temporal resolution.
aabbcc
Your satellite tracking list
Your tracking list is empty




NASA's NSSDC Master Catalog

Two Line Element Set (TLE):
1 25280U 98020A   21017.78097363  .00000631  00000-0  38464-4 0  9999
2 25280  97.4646 209.6725 0022807 182.6247 177.4869 15.13755962248296
Source of the keplerian elements: AFSPC